Hourly Data Report for September 15, 2017

All times are specified in Local Standard Time (LST). Add 1 hour to adjust for Daylight Saving Time where and when it is observed.

SATURNA ISLAND CS
BRITISH COLUMBIA

48°47'02.067" N
123°02'41.082" W
24.40 m
1017101
71473
WEZ

Download Data

Hourly Data (September 2017)
Hourly Data Report for September 15, 2017
Temp Definition
°C
Dew Point Temp Definition
°C
Rel Hum Definition
%
Wind Dir Definition
10's deg

Wind Spd Definition
km/h
Visibility Definition
km
Stn Press Definition
kPa
Hmdx Definition


Wind Chill Definition


Weather Definition


TIME
00:00 14.8 9.1 69 31 4   101.30     LegendNANA
01:00 15.6 9.2 66 31 6   101.37     LegendNANA
02:00 14.8 9.1 69 25 2   101.40     LegendNANA
03:00 15.2 8.1 63 26 3   101.44     LegendNANA
04:00 14.7 9.6 72 28 4   101.46     LegendNANA
05:00 14.8 9.7 71 31 10   101.48     LegendNANA
06:00 14.5 9.9 74 31 5   101.54     LegendNANA
07:00 15.5 10.6 72 28 4   101.57     LegendNANA
08:00 16.4 11.0 71 29 5   101.60     LegendNANA
09:00 17.4 10.7 65 29 5   101.61     LegendNANA
10:00 18.7 9.9 57 30 3   101.61     LegendNANA
11:00 19.0 9.3 53 30 5   101.59     LegendNANA
12:00 19.2 9.5 53 30 4   101.57     LegendNANA
13:00 19.5 8.2 48 30 5   101.54     LegendNANA
14:00 19.7 9.8 53 35 4   101.47     LegendNANA
15:00 20.5 8.6 46 22 8   101.41     LegendNANA
16:00 18.4 9.0 54 21 4   101.37     LegendNANA
17:00 15.9 10.6 71 13 6   101.35     LegendNANA
18:00 15.0 11.0 77 17 11   101.32     LegendNANA
19:00 16.5 6.4 51 21 12   101.29     LegendNANA
20:00 16.6 4.5 45 23 19   101.29     LegendNANA
21:00 16.4 5.8 50 22 18   101.28     LegendNANA
22:00 17.0 2.8 39 23 18   101.27     LegendNANA
23:00 16.0 4.3 46 23 18   101.28     LegendNANA

Notes on Data Quality.

Legend

  • E = Estimated
  • M = Missing
  • NA = Not Available
  • ‡ = Partner data that is not subject to review by the National Climate Archives
Date modified: